Theta_e
293 293 293 293 293 292 292 292 291 291 291 291 291 290 290 290 290 290 290 289 289 289 288 288 287 287 287 286 285 284 283 282 281 281 281 280 280 280 279 279 278 278 278 277 277 277 277 276 276 276 276 276 275 275 275 275 275 274 274 274 275 274
294 293 293 292 292 292 291 291 290 290 291 290 290 290 289 289 289 289 289 289 289 289 288 287 287 287 286 285 284 283 283 282 281 280 279 279 279 279 279 278 278 278 277 277 276 276 276 276 276 276 275 275 275 275 275 274 274 273 273 273 274 274
293 292 292 291 289 289 289 289 290 290 290 289 290 289 289 289 289 289 289 289 288 288 287 286 286 285 285 284 283 283 282 281 281 280 279 279 279 278 278 278 277 277 277 276 276 276 276 275 275 275 275 274 274 274 274 273 273 273 273 273 272 273
294 292 288 287 288 288 288 290 289 288 289 290 289 289 288 288 288 288 288 288 288 287 287 286 285 285 284 283 282 282 281 280 280 279 278 278 278 278 278 277 277 277 276 276 276 275 275 275 275 274 274 274 273 273 273 273 273 272 272 272 272 272
294 293 292 291 291 291 290 289 288 289 289 289 289 288 288 289 289 289 288 288 287 286 286 285 284 283 282 282 281 281 280 280 279 279 278 278 277 277 277 277 277 276 276 275 275 275 274 274 274 274 273 273 273 272 272 273 272 272 272 271 271 271
289 288 289 290 290 290 290 289 289 289 289 288 288 288 288 288 288 288 287 287 286 285 284 284 283 282 282 281 281 281 280 279 279 278 278 278 277 277 277 276 276 276 275 275 274 274 273 273 273 273 273 273 273 272 272 272 272 272 272 271 271 271
289 291 291 291 291 291 290 290 289 289 288 288 288 288 289 288 288 287 287 286 285 284 284 283 282 282 281 281 281 280 279 279 278 278 277 277 276 276 276 275 275 275 274 274 273 273 273 272 273 272 272 272 272 272 272 272 272 272 272 272 272 272
292 291 290 291 290 290 290 289 289 289 289 288 288 288 288 287 287 286 286 285 284 283 283 283 282 282 281 281 280 279 279 278 278 277 277 277 276 275 275 275 274 274 274 273 273 273 272 272 272 272 272 271 271 271 272 272 272 272 272 272 272 271
289 291 291 291 291 290 290 289 289 288 288 288 287 287 287 287 286 285 285 284 284 283 283 283 282 282 281 281 280 279 278 277 277 277 276 276 275 275 274 274 273 273 273 273 273 273 272 272 272 271 271 271 271 271 271 271 271 271 271 271 271 271
290 290 290 290 290 289 288 288 288 288 288 288 287 286 286 286 285 285 285 284 284 283 283 283 282 282 281 280 278 278 277 277 276 276 276 275 274 274 274 273 273 272 272 272 272 272 272 272 271 271 271 271 271 271 271 271 271 271 271 271 271 271
291 291 290 289 289 288 287 287 287 286 286 287 286 286 286 286 285 284 284 284 284 283 283 282 281 280 280 278 277 277 276 276 276 275 274 274 274 274 273 273 272 272 272 271 271 271 271 271 271 271 271 271 271 271 271 271 271 271 271 271 271 271
292 291 290 289 289 288 288 287 286 286 286 286 286 285 286 285 285 284 284 283 283 283 282 281 280 279 278 277 276 276 275 275 274 274 273 273 273 272 272 272 272 272 272 271 271 271 271 271 271 273 275 274 271 271 271 271 271 271 271 271 272 273
290 290 290 290 290 289 289 288 287 286 286 286 285 285 285 285 284 284 284 283 283 282 281 280 278 278 277 276 276 275 275 274 273 273 273 272 272 272 272 272 272 271 271 271 271 270 271 271 271 275 276 277 277 273 271 271 271 272 273 273 273 273
290 290 291 291 291 290 289 288 287 285 285 285 284 285 284 284 284 284 283 283 282 281 279 279 277 276 276 275 275 274 274 273 273 272 272 271 271 271 271 270 270 270 270 270 270 270 271 271 273 276 277 278 278 278 275 274 274 274 274 274 274 274
291 291 291 291 291 291 290 289 287 285 285 284 284 284 283 283 283 283 282 281 280 279 279 277 276 276 275 275 274 274 273 272 272 272 271 270 270 270 269 270 270 270 270 270 270 270 271 271 275 277 277 278 278 278 278 276 275 275 275 275 275 275
291 292 291 292 291 291 291 290 289 288 286 285 283 283 283 283 282 282 281 280 279 278 278 277 276 276 275 274 274 273 272 272 271 271 270 270 269 269 269 269 269 270 270 270 270 271 271 271 274 277 277 277 278 278 278 276 275 275 275 275 275 274
292 291 290 289 289 289 289 288 287 286 282 282 282 282 282 282 281 281 280 279 279 278 277 277 276 275 274 273 273 272 271 271 271 270 269 269 269 269 269 269 269 270 270 270 271 271 270 270 274 276 276 276 277 277 278 276 276 275 274 274 273 273
291 291 291 291 289 288 288 289 287 284 283 282 282 281 281 281 281 280 280 279 278 277 277 276 275 274 273 273 272 271 271 271 270 269 269 269 269 270 270 270 270 270 270 271 270 270 269 270 275 275 276 276 277 278 276 275 274 273 273 272 273 273
292 292 291 291 290 289 289 288 284 283 281 280 281 280 280 281 280 280 279 279 278 277 276 276 274 273 272 272 271 271 270 270 269 269 269 268 269 269 269 269 270 270 269 269 269 269 269 268 272 274 275 276 277 277 275 274 273 272 272 271 272 272
290 290 290 290 289 289 288 284 283 282 281 280 279 279 279 279 280 279 279 278 277 276 275 275 274 273 272 271 271 271 271 270 270 269 269 268 268 268 269 269 269 269 269 269 268 268 268 268 270 273 274 275 276 276 273 273 272 271 271 271 272 273
290 289 288 288 288 286 282 282 282 281 280 280 278 279 278 278 279 279 278 278 277 276 275 275 274 273 272 271 271 271 270 269 269 269 269 269 269 268 269 268 268 268 268 268 268 270 268 267 269 273 274 275 276 275 273 272 271 270 270 271 271 272
288 287 286 286 286 281 281 281 282 281 280 279 278 277 278 278 279 280 279 278 276 275 275 275 274 273 272 272 271 271 270 270 269 268 269 269 269 268 268 268 267 267 267 267 267 268 268 267 268 270 274 275 276 276 273 272 271 270 270 271 271 272
287 287 286 284 280 279 280 280 281 281 280 278 278 278 279 280 279 278 277 277 275 274 274 274 274 273 272 272 271 270 269 269 268 268 268 268 268 267 267 266 266 266 266 267 267 267 268 268 267 268 273 274 275 276 275 272 272 271 271 271 272 272
288 288 285 280 278 278 278 279 280 279 277 277 277 279 280 278 277 277 276 276 275 274 274 273 273 272 271 270 270 269 269 269 268 268 267 267 266 266 265 265 265 265 265 266 266 267 266 269 270 267 272 275 275 275 275 272 272 273 272 272 272 272
289 289 285 280 278 279 280 280 280 279 277 277 279 279 277 277 276 276 276 275 274 273 273 272 272 271 271 270 269 269 268 267 266 266 266 265 265 265 265 265 265 264 265 265 266 267 267 267 269 272 270 273 274 275 275 275 274 276 274 272 271 271
289 289 287 279 279 279 281 282 282 280 278 279 278 277 276 276 275 275 274 274 273 272 272 271 271 271 270 270 269 268 267 266 265 265 265 265 265 264 264 264 264 265 265 265 265 266 267 267 267 271 272 271 274 274 275 275 275 275 274 273 271 271
288 288 288 284 279 279 280 282 283 282 280 280 277 277 276 275 274 274 273 272 272 271 271 270 270 269 269 268 268 267 266 265 265 264 265 264 264 264 263 264 265 265 265 265 265 266 267 267 267 266 270 272 272 274 274 274 275 274 274 272 271 271
287 286 285 286 281 279 279 280 282 282 283 278 277 277 276 274 273 273 272 271 271 270 269 269 268 268 268 267 268 267 266 265 264 264 264 264 264 264 264 264 265 265 265 265 266 266 266 266 266 266 267 270 272 272 273 274 274 273 273 273 271 272
287 286 286 285 284 279 279 280 281 283 279 276 277 276 275 273 273 272 270 270 269 268 268 268 267 266 266 266 267 266 266 265 265 265 264 264 264 264 265 265 265 265 265 265 265 266 266 265 265 266 266 267 268 269 270 271 271 272 272 270 269 270
287 287 287 287 287 284 281 280 280 281 278 276 276 274 273 272 272 271 269 269 268 267 266 266 265 265 265 266 266 265 265 264 265 264 264 264 265 265 265 265 265 265 265 265 265 265 264 264 265 265 265 267 268 268 270 271 270 270 268 268 269 268
286 286 286 286 287 285 282 281 281 280 278 276 274 273 272 272 270 270 268 267 266 265 266 266 265 265 265 265 265 265 265 265 265 265 265 267 268 267 267 266 266 266 267 266 265 264 264 264 264 265 269 268 271 270 270 270 270 270 269 270 272 265
285 285 285 286 287 285 282 281 281 279 278 275 273 272 272 271 269 268 267 266 266 265 265 265 265 265 265 265 264 264 264 267 269 267 266 267 270 271 271 271 267 267 267 266 266 266 264 264 265 271 273 273 274 274 273 272 272 272 270 271 270 264
284 285 285 285 285 285 284 282 281 278 276 274 273 273 273 271 269 268 266 265 265 265 265 265 265 264 264 264 264 264 264 265 268 271 270 270 271 272 272 272 272 272 271 267 265 268 270 270 272 273 274 274 273 273 272 272 271 271 271 270 264 256
283 283 284 285 285 285 285 284 282 279 276 274 273 272 273 271 270 268 267 266 266 265 265 265 265 265 264 264 264 264 264 265 265 267 271 272 273 273 274 273 274 273 272 271 269 268 268 272 273 274 274 273 273 272 272 271 271 271 270 268 266 255
282 283 284 285 285 286 285 284 283 280 275 273 272 272 272 271 271 270 268 267 266 265 265 265 264 264 264 264 263 263 265 265 265 265 266 270 274 275 274 274 274 274 273 273 272 272 271 272 273 274 273 273 272 272 271 271 271 270 269 266 256 250
280 281 282 283 284 284 285 284 283 280 276 273 272 272 272 272 271 271 270 267 266 265 265 265 264 264 264 264 264 264 265 266 266 266 267 267 268 270 273 274 274 274 274 273 273 272 273 273 274 273 273 272 272 271 270 269 267 269 267 262 253 253
278 278 279 280 280 281 282 283 283 282 276 273 272 272 272 272 271 271 269 267 266 266 265 265 264 264 264 264 264 265 265 266 266 267 267 267 267 267 267 268 270 273 274 271 272 273 274 274 273 273 272 271 271 270 268 267 258 255 254 253 252 253
274 275 276 277 278 280 281 282 283 282 276 273 271 271 271 272 271 270 269 267 266 266 266 265 264 264 265 265 265 265 266 266 266 266 267 267 268 267 266 267 268 269 273 274 273 274 274 273 273 272 271 270 269 268 267 255 252 251 251 251 250 250
Wind_Speed
11 13 14 15 14 13 12 11 10 10 12 15 16 19 20 20 17 15 12 12 12 14 17 17 15 13 12 11 11 11 12 13 11 12 11 9 9 10 10 10 10 10 9 9 8 8 8 7 7 7 6 6 5 5 5 4 4 4 5 5 4 4
12 13 14 13 16 16 14 12 11 13 15 13 13 12 10 9 12 14 16 17 15 13 12 13 13 12 11 11 13 13 14 13 12 12 11 12 10 11 11 11 11 11 11 9 9 8 8 8 7 7 6 6 6 6 6 5 5 5 5 4 3 3
9 10 10 9 4 3 6 9 14 15 10 11 12 15 16 16 16 15 15 13 14 14 15 15 14 14 11 10 12 13 12 12 12 12 12 11 12 12 12 12 12 11 10 10 9 10 9 8 7 7 7 6 6 6 5 5 5 6 5 4 4 3
10 8 5 3 6 7 8 10 9 9 13 16 15 14 13 15 15 15 16 14 14 15 14 13 11 11 10 12 11 13 12 13 13 12 12 14 12 12 13 12 10 10 11 10 9 9 8 7 7 6 6 6 6 5 4 5 5 5 5 4 5 5
10 11 11 12 13 14 14 10 12 14 15 14 13 15 17 17 18 15 13 13 14 15 13 11 11 11 12 13 12 13 13 13 12 12 15 13 12 10 11 12 11 11 10 9 8 8 7 7 7 6 6 6 7 6 5 5 6 6 6 5 6 5
5 4 6 10 10 10 13 13 13 13 12 14 14 16 18 16 13 13 13 13 13 12 11 13 12 13 13 14 13 14 13 13 12 12 13 12 11 12 9 9 10 9 9 9 9 8 8 8 7 7 6 7 7 6 6 5 5 5 5 6 6 6
6 10 11 12 14 13 13 13 13 13 14 12 14 16 16 14 12 11 12 12 13 13 15 14 14 15 16 16 13 15 13 12 12 11 13 12 11 10 10 9 9 10 10 10 11 10 9 9 8 8 7 6 6 6 5 5 5 5 5 5 5 7
11 8 8 9 10 11 11 12 13 13 13 15 15 15 12 12 10 12 12 11 13 13 15 16 15 17 18 17 14 14 13 11 11 12 10 12 13 11 10 11 10 10 11 10 10 9 9 9 8 8 7 6 5 5 5 4 5 5 5 6 6 6
8 11 11 11 11 11 11 12 13 13 13 14 13 13 13 13 12 12 12 12 14 13 15 16 17 17 16 15 13 12 12 12 12 12 12 10 11 12 11 10 10 9 10 10 10 10 9 9 8 7 6 6 5 5 5 5 5 5 5 6 7 6
11 10 12 11 12 12 11 11 12 14 15 16 14 13 12 10 12 13 14 14 14 14 16 16 15 14 14 12 11 12 12 11 11 11 10 10 12 12 12 12 11 9 8 9 8 7 7 7 7 7 7 5 5 5 5 6 6 6 6 7 7 6
13 13 12 12 11 11 13 11 11 10 10 10 10 11 14 13 13 13 13 14 15 15 15 12 11 10 11 12 12 12 12 12 11 10 10 10 10 9 10 9 10 10 10 8 8 7 6 6 6 5 6 6 6 6 6 6 6 6 6 6 6 7
15 12 11 11 12 13 13 12 12 12 13 13 12 13 12 12 14 14 14 15 16 13 11 11 10 11 11 12 13 13 12 12 11 11 11 10 9 9 9 9 9 7 7 9 8 7 6 6 5 8 14 11 6 6 6 6 6 6 7 7 8 9
12 11 12 14 14 15 15 14 14 12 12 11 12 13 12 13 14 14 15 16 13 11 11 11 11 12 13 13 12 12 13 13 11 11 11 10 11 11 11 10 11 10 9 8 8 8 6 6 6 14 13 14 15 9 6 6 6 7 8 9 9 9
11 13 15 16 16 15 13 12 12 10 13 13 13 12 11 13 13 15 14 13 11 12 13 12 13 13 13 13 13 13 13 12 12 12 11 11 10 9 8 10 10 9 9 8 8 7 7 7 10 14 14 14 14 11 7 6 6 7 8 8 8 8
15 16 17 15 15 14 15 15 12 13 15 13 13 10 12 14 14 14 13 12 13 13 13 13 15 14 13 14 13 12 12 13 12 12 12 13 11 9 11 11 10 10 9 8 9 8 8 7 12 14 14 13 13 12 10 4 6 7 8 8 8 8
13 14 15 16 15 15 16 13 15 16 14 12 9 13 13 14 13 13 13 13 13 14 14 14 14 14 14 13 13 13 14 14 15 13 11 10 10 11 10 10 10 9 9 8 9 8 8 8 11 14 13 12 12 11 10 5 7 8 8 7 6 7
14 14 13 12 14 12 9 9 10 7 5 9 12 12 13 13 13 12 13 14 13 13 13 15 14 14 13 13 14 14 14 15 13 13 12 12 13 14 14 13 12 11 10 9 7 6 7 6 12 13 13 11 11 11 11 7 7 6 5 6 7 7
15 15 16 13 9 8 8 11 9 8 9 9 12 12 13 13 13 14 12 13 14 15 15 14 14 14 13 14 14 15 15 15 15 16 12 11 10 8 9 7 8 8 10 9 8 7 5 5 13 12 11 11 11 12 7 6 6 5 6 6 6 7
14 15 12 8 8 9 10 9 7 8 8 10 10 11 11 12 13 14 15 14 14 14 14 14 15 15 15 15 16 16 16 16 14 13 11 13 12 10 10 7 8 9 11 11 11 9 5 6 10 12 12 12 12 10 5 5 5 5 5 6 6 6
9 11 9 10 9 10 7 6 9 10 10 10 10 11 12 13 15 14 13 13 13 14 14 14 15 16 16 17 19 19 16 15 13 14 14 16 15 12 11 9 12 11 9 9 9 7 7 6 9 12 12 12 13 11 6 6 5 4 5 5 6 7
10 9 8 7 9 7 5 7 10 10 10 10 11 11 12 14 13 13 15 16 15 15 15 15 16 16 17 18 18 17 18 18 17 14 12 12 12 13 13 14 13 11 6 6 7 12 8 6 8 12 12 13 13 10 5 5 4 5 4 4 6 7
9 7 5 7 8 2 6 7 9 10 11 10 9 10 12 14 16 16 11 10 12 12 13 14 16 16 17 17 15 14 15 12 11 13 13 11 11 11 13 15 10 9 8 7 8 8 9 8 6 7 13 13 14 13 7 5 5 4 4 5 6 6
10 8 6 7 3 0 3 5 6 8 8 10 11 13 17 16 11 9 11 11 11 12 14 13 15 17 15 13 14 12 10 10 13 13 13 13 10 13 13 8 8 7 8 8 8 7 7 6 6 7 12 13 13 13 9 4 4 4 5 6 6 5
13 12 9 5 1 0 2 4 5 4 4 7 11 18 11 5 8 9 10 13 13 13 13 13 11 12 12 11 12 13 13 10 12 13 14 11 12 14 12 7 7 7 7 7 7 8 6 8 11 4 10 14 12 11 10 5 5 6 6 5 4 6
15 13 7 2 0 2 3 4 5 5 5 9 14 3 5 7 8 9 10 11 13 14 15 14 16 15 13 14 14 15 13 11 12 11 12 13 13 13 11 8 8 8 8 7 7 6 6 6 7 12 8 12 12 11 9 9 7 7 3 3 3 5
13 13 10 2 2 3 3 6 5 5 7 15 3 4 5 7 9 9 10 10 11 11 12 12 13 12 12 14 14 14 14 14 13 13 12 12 13 12 10 6 7 7 8 9 8 7 6 6 5 10 13 10 12 10 9 8 7 6 4 4 3 4
14 13 12 9 4 4 5 6 9 7 11 6 4 5 7 7 9 10 11 11 11 12 11 11 11 12 12 12 14 15 13 14 14 14 12 12 11 12 11 7 8 8 8 8 8 8 8 7 7 4 9 13 11 10 8 7 6 6 7 3 1 3
12 11 11 12 5 4 3 4 3 8 7 3 5 5 6 8 9 9 11 10 10 11 11 12 11 10 11 13 12 14 14 16 15 14 13 11 10 11 11 9 7 6 7 7 7 8 7 7 7 6 5 7 8 7 8 8 6 6 7 6 4 9
12 12 11 12 8 4 6 6 7 8 1 5 6 7 8 9 10 9 8 10 9 9 11 13 12 11 11 12 11 10 11 12 13 14 11 9 8 7 9 9 9 7 6 7 9 7 8 8 8 7 6 5 4 3 4 4 3 5 6 3 4 7
13 14 13 13 12 6 7 8 9 9 5 5 7 9 10 11 12 13 12 11 10 10 11 11 13 14 12 12 13 13 11 11 12 11 11 13 12 12 11 11 11 11 11 10 10 9 8 8 7 7 7 6 6 5 6 5 4 4 4 3 6 2
14 13 14 14 11 8 6 9 10 7 8 8 8 10 12 11 11 10 11 11 10 10 10 10 12 12 12 12 12 10 11 14 14 9 4 10 12 15 15 14 11 10 10 11 13 13 10 8 10 9 10 8 10 8 5 4 4 4 4 6 4 4
13 14 15 15 12 8 8 10 10 8 9 7 8 10 12 11 10 10 11 11 11 11 11 11 11 12 12 13 13 11 8 7 9 12 14 12 12 12 8 10 10 12 12 11 9 10 14 13 10 15 18 15 13 11 9 8 7 6 5 4 3 6
14 15 16 15 13 11 11 10 9 8 9 10 10 12 12 11 11 10 9 10 11 13 14 13 12 12 12 12 13 12 10 8 9 17 16 11 13 13 14 12 11 16 14 11 11 9 11 15 19 18 15 14 13 10 9 7 7 5 4 3 4 2
15 15 15 14 13 13 13 12 10 9 10 10 10 12 12 13 13 13 13 14 13 13 13 12 14 14 14 12 12 13 11 9 11 10 13 15 15 15 15 14 17 18 17 15 12 11 10 15 16 16 16 14 13 11 9 9 8 6 6 5 5 2
15 14 14 14 14 14 13 13 13 9 8 10 12 12 13 14 14 13 12 12 12 13 14 13 13 15 15 15 15 13 15 9 10 12 12 12 16 18 17 17 18 19 18 18 17 16 13 13 14 17 16 14 13 11 10 9 9 7 7 8 4 2
15 16 16 17 18 18 15 14 13 10 10 11 12 13 15 16 16 16 13 13 15 14 13 13 13 15 14 14 15 16 15 14 14 14 15 15 13 13 14 18 19 19 19 18 17 16 16 16 17 17 16 14 12 11 10 9 6 9 8 7 2 1
17 18 19 21 20 18 17 16 15 12 10 12 14 14 15 15 14 12 11 13 12 12 13 13 14 13 14 14 15 14 14 14 13 14 16 17 17 16 15 12 12 16 19 15 14 16 16 16 16 16 14 14 12 11 11 10 5 3 3 3 1 0
17 20 18 21 19 19 18 18 16 13 10 13 15 16 17 16 15 13 10 11 14 12 11 12 14 14 14 15 14 13 13 12 12 13 13 13 14 15 14 11 10 10 17 22 18 19 17 17 16 15 14 12 11 9 9 5 3 3 1 0 1 0
Wind_Direction
205 198 202 204 204 203 205 206 197 198 203 206 204 203 204 202 198 199 200 200 202 198 198 197 199 200 198 187 174 170 176 176 174 172 170 154 159 157 159 163 161 161 161 159 159 157 157 155 156 154 155 157 169 180 190 191 182 202 222 226 217 228
205 204 204 199 200 200 200 193 192 204 208 204 208 212 209 206 203 199 199 202 199 198 194 196 196 194 193 187 176 177 180 176 169 165 161 168 158 164 162 163 165 165 163 164 159 159 159 160 162 160 158 163 177 183 188 189 181 200 219 230 215 220
219 217 216 217 225 212 186 190 200 207 199 204 206 204 201 203 207 201 206 199 200 195 194 195 189 189 183 182 184 178 176 172 171 171 166 151 169 162 165 168 169 168 165 161 165 166 168 164 166 163 160 169 180 184 187 185 184 204 223 217 237 221
213 223 224 194 183 204 208 207 197 194 200 205 203 203 206 206 207 203 205 199 198 195 195 189 186 181 174 180 183 183 176 173 174 166 158 169 167 167 168 168 167 166 165 166 168 167 164 163 161 157 156 170 178 187 179 182 190 208 219 214 236 231
213 201 199 200 201 203 202 196 198 204 206 202 202 201 208 206 206 204 202 197 194 195 188 177 177 176 178 179 183 187 181 176 169 167 167 168 165 169 168 169 168 169 165 162 160 156 157 157 155 158 162 176 181 187 186 182 194 207 214 220 230 231
213 173 196 209 214 214 209 205 206 207 204 202 200 205 210 208 206 200 197 200 199 185 172 179 176 173 179 185 187 188 185 176 170 168 167 165 161 167 170 164 165 161 161 157 156 157 156 159 159 162 172 181 184 178 184 186 197 204 210 221 235 238
203 205 205 206 211 213 209 207 206 204 208 200 201 209 209 207 200 195 198 198 192 181 177 178 177 181 183 187 186 188 180 178 170 169 166 160 165 165 157 162 162 162 162 164 165 163 163 162 162 168 176 181 180 181 181 198 205 215 220 226 228 243
221 219 220 220 220 215 214 211 209 208 206 205 205 206 198 201 195 201 191 187 189 190 182 180 181 186 188 187 184 180 176 172 172 168 166 165 163 161 166 165 170 170 168 162 162 159 161 161 165 170 175 178 173 174 182 198 213 219 229 235 236 230
240 227 224 221 218 214 214 210 209 208 207 209 203 202 195 193 186 188 190 189 195 191 189 182 187 188 187 184 179 170 169 172 170 169 168 165 160 162 166 170 168 171 162 161 159 164 161 161 162 166 172 169 168 175 189 205 214 229 230 236 237 234
238 233 230 225 225 221 221 217 212 208 204 204 201 195 191 188 186 187 189 188 194 196 194 191 186 184 182 174 165 167 169 165 167 169 162 159 165 169 170 169 168 165 160 159 156 147 148 152 156 160 165 166 160 175 199 205 220 233 237 235 238 230
237 233 230 227 227 226 223 219 219 216 217 216 198 190 194 182 182 187 188 191 196 199 196 183 176 173 166 164 163 165 167 167 165 162 161 165 166 166 166 165 161 157 156 153 153 146 144 153 164 160 165 167 182 181 200 207 214 221 228 236 241 245
234 237 234 235 229 227 225 220 216 210 209 206 197 194 191 171 187 184 188 192 198 195 184 176 168 166 162 163 168 167 164 163 162 161 161 164 162 157 157 159 165 158 144 143 146 148 154 167 166 186 191 190 181 187 192 205 204 213 227 240 248 248
238 240 239 239 235 228 225 220 216 212 210 207 198 194 184 181 184 189 189 195 191 180 172 166 167 162 169 169 163 163 163 163 161 161 162 161 161 163 164 164 162 160 159 149 151 158 165 173 179 192 199 201 200 191 185 194 208 214 232 241 246 252
231 232 234 236 235 232 227 224 218 205 211 204 198 191 176 182 186 188 192 187 174 173 171 170 164 168 170 165 169 166 165 159 160 163 163 160 160 163 159 164 166 160 158 161 162 165 173 177 189 194 198 202 208 206 185 187 208 233 237 240 245 254
226 227 232 234 234 231 227 221 211 208 211 198 199 167 174 184 186 185 182 179 176 175 172 167 169 170 169 172 165 162 159 160 162 163 163 169 166 156 164 166 161 165 164 165 166 172 177 175 190 193 196 203 209 213 215 196 225 233 235 242 248 256
230 233 234 235 232 224 225 214 209 215 206 192 168 172 181 179 184 180 181 176 178 174 172 170 169 172 171 165 162 162 163 165 170 168 165 155 155 163 164 165 167 167 169 169 170 168 172 174 188 193 198 203 209 214 216 218 226 234 238 237 252 264
233 238 242 241 234 229 225 227 218 212 156 160 172 180 174 181 177 179 178 179 178 171 172 172 171 169 166 165 163 164 167 169 165 164 166 166 168 170 172 171 171 175 172 171 169 155 165 169 186 191 195 199 205 208 216 222 223 220 227 248 253 255
231 229 234 233 226 228 212 222 204 177 185 167 173 174 178 175 177 181 177 180 179 177 174 169 169 167 165 166 166 168 170 172 171 169 167 165 168 150 139 165 167 158 166 167 160 139 157 168 185 187 192 197 201 208 216 210 208 223 232 239 246 258
226 226 227 232 219 218 220 213 167 169 152 165 173 171 174 174 181 185 185 184 176 174 172 171 168 168 168 169 169 173 174 172 171 170 165 165 170 161 171 161 162 156 163 148 147 151 155 167 191 192 194 198 200 207 198 196 203 211 230 245 252 257
242 239 229 235 235 224 209 165 160 154 164 169 168 168 177 181 191 187 182 181 176 174 171 171 169 170 172 173 178 178 176 173 171 173 172 171 168 171 170 146 141 143 135 151 158 165 166 167 190 191 191 193 202 205 184 197 177 212 229 249 254 261
297 268 252 245 245 234 152 154 152 155 170 173 172 175 176 192 191 183 186 185 176 172 171 172 173 175 176 181 182 176 174 176 177 172 171 174 169 168 161 134 143 133 142 153 155 174 167 161 187 189 189 197 205 203 175 179 191 203 219 241 257 258
334 317 291 249 248 158 153 152 160 169 168 172 160 171 193 197 198 195 181 166 168 171 170 173 175 177 179 182 177 178 177 169 163 170 171 170 166 161 153 141 148 147 152 156 160 179 174 173 178 190 193 200 203 203 184 181 186 201 218 246 259 253
340 323 320 324 333 126 138 148 153 176 172 161 172 192 203 202 181 163 169 163 163 169 175 175 179 179 181 177 173 167 163 170 169 164 169 166 164 153 119 148 142 139 150 161 166 171 176 171 159 185 190 201 203 204 199 166 189 210 233 237 244 260
333 326 338 3 12 43 140 149 172 179 164 174 195 208 204 140 159 160 160 169 174 173 173 174 174 171 166 162 159 167 173 171 171 171 166 161 159 160 147 141 149 145 153 156 165 172 169 175 177 178 203 202 200 198 202 181 203 221 224 236 248 278
324 322 317 319 240 153 185 167 182 178 177 201 224 192 133 161 152 161 165 166 171 175 174 173 170 170 169 170 170 166 164 160 165 170 168 162 161 160 156 150 149 149 152 153 167 170 163 168 179 184 195 196 194 197 204 210 217 239 245 257 257 273
314 312 316 270 181 191 189 191 193 194 195 226 176 143 148 150 162 156 166 172 174 170 173 171 169 168 168 167 164 165 161 165 167 168 171 169 163 161 151 151 154 154 150 158 163 165 164 165 161 187 186 194 195 199 204 211 220 237 253 251 262 275
305 306 305 292 231 225 208 201 200 198 221 231 138 169 166 162 159 165 169 173 172 172 168 163 167 169 167 167 166 166 166 164 164 168 175 168 169 166 163 159 164 160 155 154 162 158 162 156 157 180 191 189 194 198 202 204 218 244 265 276 246 288
309 307 303 302 292 255 269 261 241 220 236 105 149 149 159 156 163 172 177 170 170 168 159 160 162 164 168 169 176 174 171 168 170 171 171 172 172 172 167 157 160 147 160 163 147 150 138 140 140 173 197 199 193 194 200 205 225 250 266 270 282 280
312 308 305 301 295 241 243 227 231 237 235 163 152 154 155 164 170 170 167 172 167 161 162 166 167 165 169 175 175 175 171 173 174 172 166 162 159 154 161 155 157 154 168 155 152 137 149 156 169 181 190 186 184 201 211 217 219 259 268 263 263 274
305 301 297 290 287 265 242 238 239 233 207 166 168 161 162 170 177 177 177 172 169 169 173 173 168 167 172 179 177 174 174 180 181 175 176 171 164 153 161 168 170 174 169 157 153 153 150 167 172 185 188 185 180 191 190 192 173 216 178 190 259 173
301 297 290 285 281 272 243 242 239 227 207 192 175 169 172 182 180 173 167 167 165 174 177 177 176 179 174 176 182 186 182 178 182 177 91 174 171 171 166 169 177 181 173 160 158 158 163 168 182 192 189 187 183 183 176 158 178 194 168 240 243 105
293 292 289 284 281 267 245 245 237 217 212 187 179 176 181 179 173 172 177 174 175 173 174 179 180 181 180 177 177 165 163 184 184 177 176 172 180 185 196 192 184 171 158 156 165 169 167 172 175 183 179 184 180 168 167 173 188 190 196 227 65 91
294 291 286 283 282 274 261 252 236 211 204 193 186 184 186 172 176 182 178 177 188 185 180 179 180 183 181 179 172 171 160 147 166 174 181 172 170 173 171 167 164 155 151 146 145 165 159 154 165 171 175 167 159 164 161 158 164 166 163 106 86 54
291 288 287 287 283 278 271 262 250 220 202 191 187 188 187 185 181 187 191 191 189 178 183 185 183 177 176 177 175 173 165 150 147 158 171 167 166 161 158 155 154 150 147 148 149 154 156 161 164 162 157 156 156 153 154 152 153 148 129 94 102 114
292 291 290 289 285 278 270 262 257 234 200 193 190 189 192 194 195 198 195 190 184 184 186 184 182 178 174 171 173 174 174 165 156 149 152 161 160 156 152 150 149 149 150 153 160 164 166 165 160 155 153 152 152 150 148 148 142 133 115 99 75 118
295 294 291 287 284 282 279 270 260 237 205 197 191 194 200 200 203 204 195 186 185 182 187 190 181 176 179 178 176 176 174 173 165 155 151 147 148 150 149 151 150 150 153 160 166 170 169 162 155 151 151 151 149 145 139 135 130 114 85 99 137 156
302 298 291 287 285 282 278 272 263 244 201 193 192 197 204 207 208 209 203 189 180 186 189 185 160 175 175 176 177 177 175 172 169 162 158 157 155 152 150 152 155 161 158 159 164 169 166 159 154 152 151 149 145 136 126 106 90 85 10 17 37 152
296 290 289 288 286 285 281 273 266 248 197 193 191 197 203 207 204 200 193 186 186 185 183 178 182 181 179 178 179 178 172 166 163 164 160 154 149 147 145 143 149 151 161 163 165 166 160 156 153 151 147 141 134 142 140 102 133 127 194 214 235 188